Simultaneous Nadir Overpasses (SNOs) Predictions

Prediction of SNOs between GOES-17 and NOAA-19 Satellite Orbit:

Table of predicted SNOs for the next 14.0 days since TLE Epoch: 1/23/2022
Index Date Time (GOES-17) GOES-17 Lat,Lon NOAA-19 Lat,Lon Distance(km) Time Diff (sec)
1 01/24/2022 04:54:14 0.02,-137.22 -0.93,-141.40 475.77 80
2 01/25/2022 04:42:27 0.02,-137.22 -0.27,-138.52 147.47 80
3 01/26/2022 04:27:59 0.02,-137.22 0.39,-135.64 180.57 80
4 01/28/2022 16:51:22 -0.02,-137.21 0.76,-140.54 380.07 80
5 01/29/2022 16:39:35 -0.02,-137.20 0.08,-137.66 52.73 80
6 01/30/2022 16:25:07 -0.02,-137.19 -0.59,-134.79 274.49 80
7 02/02/2022 04:45:51 -0.02,-137.15 -0.60,-139.69 289.83 80
8 02/03/2022 04:36:44 -0.02,-137.13 0.06,-136.81 37.26 80
9 02/04/2022 04:24:56 -0.02,-137.12 0.72,-133.93 364.27 80
